Погода в Урагах

Россия / Республика Дагестан     42°04′04″N   47°34′09″E
темп.,
°C
ветер,
м/с
пор.,
м/с
влажн.,
%
обл.,
%
осадки,
мм/ч
давл.,
гПа
погр.,
м
7 июля, чт
чт700:00+8ююз33790 0.0 101820
03:00+8ююз33740 0.0 101720
06:00+11ююз22750 0.0 101656
09:00+15св32650 0.0 1015723
12:00+17св427243 0.1 1013860
15:00+15всв338062 1.7 1014645
18:00+14в228815 1.8 1014178
21:00+11юз22855 5.6 101515
8 июля, пт
пт800:00+10юз32804 0.0 101515
03:00+10ююз32810 0.0 101515
06:00+13ю12800 0.0 101460
09:00+16всв327516 0.0 1013751
12:00+17всв437365 0.7 1013930
15:00+17в446653 1.5 10131035
18:00+15в23803 0.8 1013229
21:00+11ю228615 2.1 101512
9 июля, сб
сб900:00+10ююз33794 0.6 101424
03:00+10ююз33765 0.6 101423
06:00+12ююз22766 0.0 101347
09:00+17всв3262100 0.0 1011755
12:00+18всв446518 0.8 1011920
15:00+19вюв456126 2.9 10101315
18:00+16в23727 0.2 1010122
21:00+12ююз33733 0.2 101323
10 июля, вс
вс1000:00+11ююз43625 0.0 101128
03:00+11ююз43575 0.0 101126
06:00+13юз32690 0.0 101037
09:00+19всв22560 0.0 1008608
12:00+21всв44582 0.0 1007836
15:00+21в55552 0.1 10071043
18:00+18в23730 0.0 100889
21:00+14ююз43620 0.0 101131
11 июля, пн
пн1100:00+13ююз43520 0.0 101032
03:00+13ююз33500 0.0 101021
06:00+15ююз32620 0.0 101025
09:00+20св32550 0.0 1009480
12:00+21св33570 0.0 1010875
15:00+22всв34540 0.2 1010868
18:00+19св22760 0.0 1012147
21:00+14зюз22840 0.0 101615